User: anonymous   Login
Location: Eaton Estates
(41.3089°N, 82.0057°W)
Time: 15:42:05
(UTC+00:00)
Language:

DOVE 4 - Orbit

View from above orbital plane
View from above orbital plane
View from above satellite
View from above satellite

Ground track
Ground track

The orbit data is extracted from the following two-line orbital elements,

1 39430U 13066Q   23079.12232667  .00003993  00000-0  70402-3 0  9995
2 39430  97.7895 335.4325 0145163 255.0236 103.4814 14.61360672496538
Epoch (UTC): 20 March 2023 02:56:09
Eccentricity: 0.0145163
inclination: 97.7895°
perigee height: 586 km
apogee height: 791 km
right ascension of ascending node: 335.4325°
argument of perigee: 255.0236°
revolutions per day: 14.61360672
mean anomaly at epoch: 103.4814°
orbit number at epoch: 49653

The dashed part of the orbit path shows where the satellite is in the earth's shadow,  

DLR